HULIANWANG DIGUI 14D

Last updated on Wed Dec 10 2025 00:02:08 GMT+0000 (Coordinated Universal Time)

1 66918U 25285D 25343.64381374 -.00000146 00000+0 36860-5 0 9994 2 66918 50.0042 129.9018 0006483 269.5411 90.4751 14.05702943 474
UTC large
Height (km)
Speed (km/s)
/
Latitude / Longitude
Inclination (degrees)
Orbital Period (minutes)
Azimuth
Elevation
Range (km)
Doppler Factor

Next 0 passes for location: London (51.5072 / 0.1276)

Sorry there are no passes over London.